(266362) = 2001 YF156 = 2007 EW48

Discovered at Kitt Peak on 2007-03-09 by Spacewatch.

Orbit

Orbit type: Main Belt

Note: WebGL enabled browser required.

epoch2024-03-31.0
epoch JD2460400.5
perihelion date2023-12-28.75406
perihelion JD2460307.25406
argument of perihelion (°)126.62239
ascending node (°)28.24089
inclination (°)12.01031
eccentricity0.1408354
perihelion distance (AU)2.2660716
Tisserand w.r.t. Jupiter3.4
ΔV w.r.t. Earth (km/sec)10.1
semimajor axis (AU)2.6375290
mean anomaly (°)21.45546
mean daily motion (°/day)0.23009540
aphelion distance (AU)3.009
period (years)4.28
P-vector [x]-0.89698375
P-vector [y]0.30909572
P-vector [z]0.31603796
Q-vector [x]-0.43095849
Q-vector [y]-0.77066204
Q-vector [z]-0.46941964
absolute magnitude16.32
phase slope0.15
uncertainty0
referenceMPEC 2024-F62
observations used428
oppositions14
arc length (days)8597
first opposition used2000
last opposition used2024
residual rms (arc-secs)0.75
perturbers coarse indicatorM-v
perturbers precise indicator003Ek
first observation date used2000-09-05.0
last observation date used2024-03-20.0
computer nameMPCLINUX
JD of orbit computation2456612.722503
perihelion JD uncertainty (days)1.1288E-04
argument of perihelion uncertainty (°)3.7599E-05
ascending node uncertainty (°)2.3462E-05
inclination uncertainty (°)1.0259E-05
eccentricity uncertainty 8.6151E-08
perihelion distance uncertainty (AU)2.3680E-07
Minimum Orbit Intersection Distances (in AU)
for orbit epoch: 2460400.5, reference: E2024-GH2
Mercury1.89451
Venus1.55298
Earth1.29632
Mars0.64565
Jupiter2.01419
Saturn6.45293
Uranus16.1789
Neptune26.9258

Observations

436 total observations over interval: 2000 09 05.425760 – 2024 03 20.197086
These data are available for download (format description).

Date (UT) J2000 RA J2000 Dec Magn Location Ref
2000 09 05.425760 00 07 43.231 -10 47 57.85 20.57 V 645 – Apache Point-Sloan Digital Sky Survey MPS 206265
2000 09 05.429232 00 07 43.057 -10 47 58.56 21.21   645 – Apache Point-Sloan Digital Sky Survey MPS 206265
2001 12 20.35030 06 24 32.58 +41 14 01.5 19.9   644 – Palomar Mountain/NEAT MPS 57273
2001 12 20.37382 06 24 30.77 +41 14 07.9 19.8   644 – Palomar Mountain/NEAT MPS 57273
2001 12 20.39414 06 24 29.28 +41 14 13.2 20.4   644 – Palomar Mountain/NEAT MPS 57273
2001 12 23.31406 06 20 52.85 +41 26 01.4 19.9   704 – Lincoln Laboratory ETS, New Mexico MPS 57273
2001 12 23.32925 06 20 51.64 +41 26 03.7 20.0   704 – Lincoln Laboratory ETS, New Mexico MPS 57273
2001 12 23.34450 06 20 50.44 +41 26 07.1 20.2   704 – Lincoln Laboratory ETS, New Mexico MPS 57273
2005 11 21.28720 03 33 52.27 +29 08 03.9 18.9 V 703 – Catalina Sky Survey MPS 206265
2005 11 21.29368 03 33 51.76 +29 08 04.1 19.0 V 703 – Catalina Sky Survey MPS 206265
2005 11 21.30021 03 33 51.37 +29 08 04.5 19.6 V 703 – Catalina Sky Survey MPS 206265
2005 11 21.30676 03 33 50.90 +29 08 04.7 19.0 V 703 – Catalina Sky Survey MPS 206265
2007 03 09.48215 13 56 54.00 -06 34 33.1 20.3 V 691 – Steward Observatory, Kitt Peak-Spacewatch MPS 203269
2007 03 09.49975 13 56 53.56 -06 34 35.1 20.2 V 691 – Steward Observatory, Kitt Peak-Spacewatch MPS 203269
2007 03 09.52088 13 56 53.03 -06 34 37.4 20.2 V 691 – Steward Observatory, Kitt Peak-Spacewatch MPS 203269
2007 03 13.39552 13 55 09.67 -06 41 24.9 20.0 V 691 – Steward Observatory, Kitt Peak-Spacewatch MPS 203269
2007 03 13.41313 13 55 09.12 -06 41 26.7 20.2 V 691 – Steward Observatory, Kitt Peak-Spacewatch MPS 203269
2007 03 13.43075 13 55 08.53 -06 41 28.5 20.0 V 691 – Steward Observatory, Kitt Peak-Spacewatch MPS 203269
2007 03 14.37230 13 54 39.25 -06 42 55.4 19.5 R 699 – Lowell Observatory-LONEOS MPS 203269
2007 03 14.39150 13 54 38.59 -06 42 56.3   699 – Lowell Observatory-LONEOS MPS 203269
2007 03 14.41070 13 54 37.84 -06 42 58.6   699 – Lowell Observatory-LONEOS MPS 203269
2007 03 14.42988 13 54 37.26 -06 43 00.3   699 – Lowell Observatory-LONEOS MPS 203269
2007 04 07.33532 13 34 52.42 -07 01 09.7 19.1 V 703 – Catalina Sky Survey MPS 206265
2007 04 07.34238 13 34 52.10 -07 01 10.0 19.9 V 703 – Catalina Sky Survey MPS 206265
2007 04 07.34943 13 34 51.63 -07 01 10.9 19.3 V 703 – Catalina Sky Survey MPS 206265
2007 04 07.35652 13 34 51.09 -07 01 08.7 19.1 V 703 – Catalina Sky Survey MPS 206265
2007 04 11.22620 13 30 50.26 -07 02 15.0 19.6 V 691 – Steward Observatory, Kitt Peak-Spacewatch MPS 206265
2007 04 11.24377 13 30 49.13 -07 02 15.7 19.5 V 691 – Steward Observatory, Kitt Peak-Spacewatch MPS 206265
2007 04 11.26135 13 30 47.98 -07 02 15.9 19.5 V 691 – Steward Observatory, Kitt Peak-Spacewatch MPS 206265
2007 04 16.31243 13 25 30.25 -07 03 47.8 18.8   704 – Lincoln Laboratory ETS, New Mexico MPS 206981
2007 04 16.32169 13 25 29.65 -07 03 48.2 18.8   704 – Lincoln Laboratory ETS, New Mexico MPS 206981
2007 04 16.33095 13 25 29.03 -07 03 47.7 19.1   704 – Lincoln Laboratory ETS, New Mexico MPS 206981
2007 04 16.34021 13 25 28.45 -07 03 48.5 19.1   704 – Lincoln Laboratory ETS, New Mexico MPS 206981
2007 04 16.34946 13 25 27.85 -07 03 48.9 19.1   704 – Lincoln Laboratory ETS, New Mexico MPS 206981
2007 04 18.28656 13 23 27.27 -07 04 32.7 19.2 V G96 – Mt. Lemmon Survey MPS 206981
2007 04 18.29433 13 23 26.80 -07 04 32.9 19.1 V G96 – Mt. Lemmon Survey MPS 206981
2007 04 18.30208 13 23 26.30 -07 04 33.0 19.2 V G96 – Mt. Lemmon Survey MPS 206981
2007 04 18.30995 13 23 25.80 -07 04 32.9 19.0 V G96 – Mt. Lemmon Survey MPS 206981
2007 05 09.24380 13 05 05.53 -07 25 55.8 19.8 V G96 – Mt. Lemmon Survey MPS 209031
2007 05 09.24884 13 05 05.31 -07 25 56.3 19.8 V G96 – Mt. Lemmon Survey MPS 209031
2007 05 09.25382 13 05 05.10 -07 25 56.7 19.9 V G96 – Mt. Lemmon Survey MPS 209031
2007 05 16.23148 13 01 10.02 -07 41 07.9 19.5 V G96 – Mt. Lemmon Survey MPS 209031
2007 05 16.23810 13 01 09.80 -07 41 08.8 19.5 V G96 – Mt. Lemmon Survey MPS 209031
2007 05 16.24470 13 01 09.58 -07 41 09.9 19.6 V G96 – Mt. Lemmon Survey MPS 209031
2009 09 19.39526 02 17 36.87 +12 02 24.8   691 – Steward Observatory, Kitt Peak-Spacewatch MPS 295903
2009 09 19.41295 02 17 36.35 +12 02 25.5   691 – Steward Observatory, Kitt Peak-Spacewatch MPS 295903
2009 09 19.43061 02 17 35.79 +12 02 26.2   691 – Steward Observatory, Kitt Peak-Spacewatch MPS 295903
2009 09 26.41285 02 13 33.53 +12 05 04.8 21.1 V 691 – Steward Observatory, Kitt Peak-Spacewatch MPS 296983
2009 09 26.43049 02 13 32.81 +12 05 04.7 20.6 V 691 – Steward Observatory, Kitt Peak-Spacewatch MPS 296983
2009 09 26.44814 02 13 32.07 +12 05 04.9 20.8 V 691 – Steward Observatory, Kitt Peak-Spacewatch MPS 296983
2009 10 02.25804 02 09 19.87 +12 04 09.8 20.2 V G96 – Mt. Lemmon Survey MPS 297777
2009 10 02.26569 02 09 19.51 +12 04 09.2 20.7 V G96 – Mt. Lemmon Survey MPS 297777
2009 10 02.27318 02 09 19.18 +12 04 09.3 20.0 V G96 – Mt. Lemmon Survey MPS 297777
2009 10 02.28104 02 09 18.82 +12 04 09.2 20.2 V G96 – Mt. Lemmon Survey MPS 297777
2009 10 14.30765 01 58 38.92 +11 54 23.9 19.5 V G96 – Mt. Lemmon Survey MPS 298358
2009 10 14.31424 01 58 38.60 +11 54 23.5 19.5 V G96 – Mt. Lemmon Survey MPS 298358
2009 10 14.32119 01 58 38.13 +11 54 23.2 19.8 V G96 – Mt. Lemmon Survey MPS 298358
2009 10 14.32809 01 58 37.70 +11 54 22.6 19.9 V G96 – Mt. Lemmon Survey MPS 298358
2009 10 24.14518 01 48 47.28 +11 40 53.4   691 – Steward Observatory, Kitt Peak-Spacewatch MPS 300745
2009 10 24.16235 01 48 46.19 +11 40 52.0   691 – Steward Observatory, Kitt Peak-Spacewatch MPS 300745
2009 10 24.17952 01 48 45.12 +11 40 50.5   691 – Steward Observatory, Kitt Peak-Spacewatch MPS 300745
2009 11 16.08092 01 27 37.52 +11 11 19.0 21.1 V 691 – Steward Observatory, Kitt Peak-Spacewatch MPS 303366
2009 11 16.09677 01 27 36.77 +11 11 18.7 20.6 V 691 – Steward Observatory, Kitt Peak-Spacewatch MPS 303366
2009 11 16.11263 01 27 36.03 +11 11 17.9 21.0 V 691 – Steward Observatory, Kitt Peak-Spacewatch MPS 303366
2009 11 20.08116 01 24 48.95 +11 09 07.3 20.6 V 691 – Steward Observatory, Kitt Peak-Spacewatch MPS 303366
2009 11 20.10503 01 24 47.97 +11 09 06.6 20.6 V 691 – Steward Observatory, Kitt Peak-Spacewatch MPS 303366
2009 11 20.12888 01 24 47.01 +11 09 06.4 20.4 V 691 – Steward Observatory, Kitt Peak-Spacewatch MPS 303366
2009 11 22.07561 01 23 33.31 +11 08 34.0 20.9 V 691 – Steward Observatory, Kitt Peak-Spacewatch MPS 304989
2009 11 22.08618 01 23 32.89 +11 08 33.8 20.7 V 691 – Steward Observatory, Kitt Peak-Spacewatch MPS 304989
2009 11 22.09675 01 23 32.51 +11 08 33.7 20.7 V 691 – Steward Observatory, Kitt Peak-Spacewatch MPS 304989
2009 11 24.06584 01 22 23.66 +11 08 23.7 20.7 V 691 – Steward Observatory, Kitt Peak-Spacewatch MPS 304989
2009 11 24.07642 01 22 23.30 +11 08 24.1 20.8 V 691 – Steward Observatory, Kitt Peak-Spacewatch MPS 304989
2009 11 24.08700 01 22 22.93 +11 08 24.0 20.8 V 691 – Steward Observatory, Kitt Peak-Spacewatch MPS 304989
2010 01 12.283042 01 26 12.27 +13 25 47.1   C51 – WISE MPS 329204
2010 01 12.349258 01 26 14.80 +13 26 08.0   C51 – WISE MPS 329204
2010 01 12.415347 01 26 17.46 +13 26 30.1   C51 – WISE MPS 329204
2010 01 12.54765 01 26 22.63 +13 27 13.3   C51 – WISE MPS 329204
2010 01 12.54778 01 26 22.67 +13 27 12.8   C51 – WISE MPS 329204
2010 01 12.680083 01 26 27.90 +13 27 55.6   C51 – WISE MPS 329204
2010 01 12.812389 01 26 33.21 +13 28 40.8   C51 – WISE MPS 329204
2011 01 10.07049 11 31 19.51 +20 11 08.6 19.3 R 114 – Engelhardt Observatory, Zelenchukskaya Station MPS 365682
2011 01 10.07443 11 31 19.55 +20 11 08.9 19.5 R 114 – Engelhardt Observatory, Zelenchukskaya Station MPS 365682
2011 01 10.07821 11 31 19.63 +20 11 09.4 19.3 R 114 – Engelhardt Observatory, Zelenchukskaya Station MPS 365682
2011 01 10.08209 11 31 19.73 +20 11 10.0 19.1 R 114 – Engelhardt Observatory, Zelenchukskaya Station MPS 365682
2011 01 10.08603 11 31 19.80 +20 11 09.8 18.9 R 114 – Engelhardt Observatory, Zelenchukskaya Station MPS 365682
2011 02 07.36190 11 27 10.89 +21 49 37.7 19.1   704 – Lincoln Laboratory ETS, New Mexico MPS 369566
2011 02 07.37618 11 27 10.32 +21 49 40.9 19.8   704 – Lincoln Laboratory ETS, New Mexico MPS 369566
